EW0420 Weather Reports


time (UTC)temp
F
wind
direction
speed
knots
gust
knots
rain 1hr
in
rain 24hr
in
rain mn
in
humidity
%
barometer
mb
20260507094317 48 315 1.7 1.7 0.00 0.17 0.17 99 1012.0
20260507093814 48 136 0.9 0.9 0.00 0.17 0.17 99 1011.7
20260507093312 48 137 0.0 0.9 0.00 0.17 0.17 99 1012.0
20260507092810 48 134 0.9 0.9 0.00 0.17 0.17 99 1011.5
20260507092307 48 125 0.0 0.9 0.00 0.17 0.17 99 1011.5
20260507091803 48 100 0.0 0.9 0.05 0.17 0.17 99 1011.6
20260507091259 48 130 0.9 1.7 0.12 0.17 0.17 99 1011.5
20260507090759 48 127 0.0 0.9 0.07 0.16 0.16 99 1011.8
20260507090256 48 124 0.0 0.9 0.05 0.15 0.15 99 1011.7
20260507085753 48 101 0.0 1.7 0.05 0.15 0.15 99 1011.5
20260507085250 48 138 1.7 1.7 0.07 0.14 0.14 99 1011.3
20260507084747 48 51 1.7 1.7 0.24 0.14 0.14 99 1011.5
20260507084243 48 126 0.0 0.9 0.19 0.12 0.12 99 1011.9
20260507083741 48 135 0.9 1.7 0.12 0.10 0.10 99 1012.0
20260507083238 48 348 2.6 4.3 0.12 0.09 0.09 99 1011.7
20260507082734 48 147 0.9 1.7 0.12 0.08 0.08 99 1012.2
20260507082229 48 145 0.9 0.9 0.05 0.07 0.07 99 1011.8
20260507081727 49 160 1.7 2.6 0.00 0.06 0.06 99 1012.0
20260507081222 49 159 0.9 4.3 0.00 0.06 0.06 99 1012.1
20260507080719 49 151 0.9 0.9 0.07 0.06 0.06 99 1012.0
20260507080215 49 151 0.0 0.9 0.07 0.06 0.06 99 1011.8
20260507075711 49 151 0.0 0.0 0.07 0.05 0.05 99 1011.9
20260507075208 49 186 0.9 1.7 0.05 0.04 0.04 99 1011.7
20260507074704 49 128 0.0 1.7 0.05 0.04 0.04 99 1011.8
20260507074203 50 128 0.0 0.9 0.00 0.03 0.03 99 1012.0
20260507073658 50 128 0.9 1.7 0.00 0.03 0.03 99 1012.1
20260507073154 50 161 0.9 1.7 0.00 0.03 0.03 99 1011.7
20260507072653 50 230 4.3 7.0 0.07 0.03 0.03 99 1012.0
20260507072150 50 144 0.9 1.7 0.07 0.03 0.03 99 1011.8
20260507071648 50 143 0.9 1.7 0.05 0.02 0.02 99 1011.7
20260507071143 51 156 0.9 1.7 0.05 0.02 0.02 99 1011.7
20260507070641 50 161 0.9 4.3 0.00 0.01 0.01 99 1011.7
20260507070137 51 163 0.9 1.7 0.00 0.01 0.01 99 1011.3
20260507065634 51 163 0.9 1.7 0.00 0.01 0.01 99 1011.2
20260507065131 51 163 0.9 0.9 0.00 0.01 0.01 99 1010.9
20260507064628 51 162 0.9 1.7 0.00 0.01 0.01 99 1010.9
20260507064127 51 134 0.9 1.7 0.00 0.01 0.01 99 1010.8
20260507063624 51 134 0.9 0.9 0.00 0.01 0.01 99 1011.1
20260507063121 51 1 0.9 1.7 0.00 0.01 0.01 99 1010.8
20260507062617 51 291 2.6 2.6 0.00 0.01 0.01 99 1010.8
20260507062115 51 287 0.0 1.7 0.00 0.01 0.01 99 1010.8
20260507061613 51 219 2.6 2.6 0.00 0.01 0.01 99 1010.9
20260507061111 51 159 0.9 1.7 0.00 0.01 0.01 99 1011.1
20260507060609 51 162 0.0 2.6 0.00 0.01 0.01 99 1011.4
20260507060105 51 168 0.9 0.9 0.00 0.01 0.01 99 1011.3
20260507055600 51 163 1.7 2.6 0.00 0.01 0.01 99 1011.2
20260507055056 52 167 0.9 0.9 0.00 0.01 0.01 99 1011.1
20260507054552 52 158 0.9 1.7 0.00 0.01 0.01 99 1011.2
20260507054050 52 159 0.9 1.7 0.00 0.01 0.01 99 1011.2
20260507053548 52 166 0.9 2.6 0.00 0.01 0.01 99 1011.3
20260507053046 52 165 0.0 0.9 0.00 0.01 0.01 99 1011.3
20260507052543 52 244 2.6 4.3 0.00 0.01 0.01 99 1011.1
20260507052040 52 166 0.0 2.6 0.00 0.01 0.01 99 1011.6
20260507051538 52 161 0.9 1.7 0.00 0.01 0.01 99 1011.6
20260507051034 52 151 0.0 1.7 0.00 0.01 0.01 99 1011.7
20260507050531 52 133 0.9 2.6 0.00 0.01 0.01 99 1011.7
20260507050027 52 161 0.9 2.6 0.00 0.01 0.01 99 1011.5
20260507045524 53 154 0.0 1.7 0.00 0.01 0.01 99 1011.5
20260507045021 53 155 3.5 4.3 0.00 0.01 0.01 99 1011.2
20260507044518 53 103 0.9 4.3 0.00 0.01 0.01 99 1011.3
20260507044015 54 281 3.5 6.1 0.00 0.01 0.01 99 1011.3
20260507043511 54 84 3.5 5.2 0.07 0.01 0.01 99 1011.2
20260507043008 54 243 1.7 2.6 0.07 0.01 0.01 99 1011.3
20260507042504 55 162 0.9 5.2 0.00 0.00 0.00 99 1011.2
20260507041959 55 121 0.0 0.9 0.00 0.00 0.00 99 1011.6
20260507041457 55 123 0.9 5.2 0.00 0.00 0.00 99 1011.4
20260507040954 55 145 1.7 1.7 0.00 0.00 0.00 99 1011.3
20260507040449 55 153 0.9 4.3 0.00 0.00 0.00 99 1011.2
20260507035945 55 152 0.9 2.6 0.05 0.22 0.22 99 1011.5
20260507035442 56 163 1.7 2.6 0.05 0.22 0.22 99 1011.4
20260507034939 56 163 2.6 2.6 0.00 0.21 0.21 99 1011.4
20260507034436 56 150 1.7 2.6 0.07 0.21 0.21 99 1011.4
20260507033934 56 152 0.0 0.9 0.07 0.21 0.21 99 1011.3
20260507033431 56 152 0.9 1.7 0.00 0.20 0.20 99 1011.5
20260507032928 56 152 2.6 2.6 0.00 0.20 0.20 99 1011.4
20260507032425 56 154 1.7 2.6 0.00 0.20 0.20 99 1011.4
20260507031921 57 151 1.7 2.6 0.00 0.20 0.20 99 1011.1
20260507031418 57 155 0.9 1.7 0.00 0.20 0.20 99 1011.1
20260507030915 58 147 0.9 1.7 0.00 0.20 0.20 99 1011.2
20260507030412 58 149 0.9 4.3 0.00 0.20 0.20 99 1011.1
20260507025909 58 154 2.6 2.6 0.00 0.20 0.20 99 1011.2
20260507025406 58 178 1.7 5.2 0.00 0.20 0.20 99 1011.0
20260507024904 58 170 1.7 4.3 0.00 0.20 0.20 99 1011.0
20260507024401 58 146 2.6 6.1 0.00 0.20 0.20 99 1010.8
20260507023857 58 158 2.6 4.3 0.00 0.20 0.20 99 1010.9
20260507023354 58 175 2.6 5.2 0.00 0.20 0.20 99 1010.8
20260507022851 58 169 3.5 5.2 0.00 0.20 0.20 99 1010.9
20260507022347 58 174 3.5 4.3 0.00 0.20 0.20 99 1010.9
20260507021843 57 160 2.6 5.2 0.00 0.20 0.20 99 1010.5
20260507021339 57 156 1.7 2.6 0.00 0.20 0.20 99 1010.5
20260507020837 57 147 2.6 4.3 0.00 0.20 0.20 99 1010.6
20260507020333 57 148 1.7 5.2 0.00 0.20 0.20 99 1010.8
20260507015831 57 155 2.6 4.3 0.00 0.20 0.20 99 1010.5
20260507015329 57 181 4.3 8.7 0.00 0.20 0.20 99 1010.9
20260507014825 57 153 2.6 4.3 0.00 0.20 0.20 99 1010.6
20260507014321 57 150 3.5 4.3 0.00 0.20 0.20 99 1010.8
20260507013818 57 155 4.3 7.0 0.00 0.20 0.20 99 1010.6
20260507013315 57 167 4.3 8.7 0.00 0.20 0.20 99 1010.7
20260507012813 57 179 6.1 7.8 0.00 0.20 0.20 99 1010.6
20260507012308 57 153 3.5 4.3 0.00 0.20 0.20 99 1010.5
20260507011806 57 149 2.6 7.0 0.00 0.20 0.20 99 1010.4
20260507011302 57 130 4.3 7.0 0.00 0.20 0.20 99 1010.5
20260507010802 57 171 7.8 7.8 0.00 0.20 0.20 99 1010.5
20260507010258 57 146 3.5 7.0 0.00 0.20 0.20 99 1010.8
20260507005756 57 132 1.7 6.1 0.00 0.20 0.20 99 1010.9
20260507005252 57 148 4.3 7.8 0.00 0.20 0.20 99 1010.8
20260507004749 57 182 5.2 7.0 0.00 0.20 0.20 99 1010.8
20260507004246 57 140 2.6 5.2 0.00 0.20 0.20 99 1010.6
20260507003742 57 136 3.5 5.2 0.00 0.20 0.20 99 1010.9
20260507003238 57 144 2.6 13.0 0.00 0.20 0.20 99 1010.8
20260507002734 57 126 5.2 7.8 0.00 0.20 0.20 99 1010.9
20260507002230 57 141 2.6 6.1 0.00 0.20 0.20 99 1011.0
20260507001727 57 136 4.3 7.0 0.00 0.20 0.20 99 1010.9
20260507001225 57 153 2.6 12.2 0.00 0.20 0.20 99 1010.9
20260507000721 57 166 7.8 9.6 0.00 0.20 0.20 99 1010.7
20260507000216 57 139 3.5 6.1 0.00 0.20 0.20 99 1010.5
20260506235713 57 116 3.5 7.0 0.00 0.20 0.20 99 1010.7
20260506235209 57 126 2.6 5.2 0.00 0.20 0.20 99 1010.6
20260506234706 57 145 2.6 6.1 0.00 0.20 0.20 99 1010.6
20260506234203 57 157 3.5 7.0 0.00 0.20 0.20 99 1010.3
20260506233701 57 129 2.6 5.2 0.00 0.20 0.20 99 1010.5
20260506233157 57 132 1.7 6.1 0.00 0.20 0.20 99 1010.4
20260506232653 57 133 2.6 5.2 0.00 0.20 0.20 99 1010.2
20260506232148 57 141 3.5 6.1 0.00 0.20 0.20 99 1010.2
20260506231646 57 135 3.5 7.0 0.05 0.20 0.20 99 1010.5
20260506231145 57 135 3.5 5.2 0.12 0.20 0.20 99 1010.2
20260506230641 57 126 2.6 6.1 0.12 0.19 0.19 99 1010.1
20260506230138 57 145 2.6 4.3 0.05 0.18 0.18 99 1010.2
20260506225634 57 139 2.6 4.3 0.00 0.17 0.17 99 1010.2
20260506225131 58 152 2.6 6.1 0.00 0.17 0.17 99 1010.4
20260506224628 58 169 2.6 6.1 0.00 0.17 0.17 99 1010.3
20260506224124 58 159 4.3 7.0 0.07 0.17 0.17 99 1010.3
20260506223620 57 165 1.7 4.3 0.07 0.17 0.17 99 1010.3
20260506223116 57 140 1.7 2.6 0.05 0.16 0.16 99 1010.4
20260506222614 57 141 2.6 4.3 0.00 0.15 0.15 99 1010.5
20260506222110 57 143 0.9 4.3 0.00 0.15 0.15 99 1010.3
20260506221608 58 120 3.5 5.2 0.00 0.15 0.15 99 1010.7
20260506221106 58 148 3.5 6.1 0.00 0.15 0.15 99 1010.4
20260506220602 58 139 1.7 2.6 0.00 0.15 0.15 99 1010.2
20260506220057 58 127 2.6 5.2 0.07 0.15 0.15 99 1010.5
20260506215554 58 132 0.9 7.0 0.07 0.15 0.15 99 1010.5
20260506215049 58 151 1.7 4.3 0.00 0.14 0.14 99 1010.7
20260506214547 58 133 0.9 5.2 0.00 0.14 0.14 99 1010.6
20260506214044 58 140 3.5 5.2 0.07 0.14 0.14 99 1010.4
20260506213543 58 140 2.6 8.7 0.07 0.14 0.14 99 1010.6
20260506213040 58 101 4.3 7.8 0.05 0.13 0.13 99 1010.5
20260506212536 58 128 2.6 6.1 0.05 0.13 0.13 99 1010.5
20260506212030 58 152 4.3 6.1 0.07 0.12 0.12 99 1010.7
20260506211527 58 123 2.6 5.2 0.07 0.12 0.12 99 1010.7
20260506211024 58 142 4.3 6.1 0.00 0.11 0.11 99 1010.7
20260506210521 58 86 5.2 8.7 0.00 0.11 0.11 99 1010.7
20260506210017 58 161 2.6 8.7 0.05 0.11 0.11 99 1010.9
20260506205514 58 138 4.3 7.8 0.05 0.11 0.11 99 1010.8
20260506205009 58 124 5.2 7.0 0.00 0.10 0.10 99 1010.8
20260506204508 58 125 3.5 6.1 0.07 0.10 0.10 99 1010.6
20260506204004 58 165 2.6 5.2 0.07 0.10 0.10 99 1011.1
20260506203503 58 127 2.6 5.2 0.00 0.09 0.09 99 1011.2
20260506202958 58 145 3.5 6.1 0.00 0.09 0.09 99 1011.0
20260506202456 58 166 4.3 6.1 0.00 0.09 0.09 99 1011.0
20260506201952 58 155 6.1 7.0 0.00 0.09 0.09 99 1011.1
20260506201450 58 168 2.6 5.2 0.00 0.09 0.09 99 1011.2
20260506200946 58 127 3.5 7.8 0.00 0.09 0.09 99 1011.0
20260506200443 58 135 3.5 7.0 0.05 0.09 0.09 99 1011.2
20260506195939 58 161 4.3 6.1 0.00 0.08 0.08 99 1011.0
20260506195436 58 156 3.5 11.3 0.00 0.08 0.08 99 1011.3
20260506194933 58 120 4.3 7.8 0.00 0.08 0.08 99 1011.3
20260506194430 58 150 5.2 6.1 0.00 0.08 0.08 99 1011.6
20260506193927 58 121 4.3 8.7 0.00 0.08 0.08 99 1011.7
20260506193424 58 158 4.3 7.0 0.00 0.08 0.08 99 1011.4
20260506192920 58 155 3.5 8.7 0.00 0.08 0.08 99 1011.5
20260506192417 59 141 4.3 5.2 0.07 0.08 0.08 99 1011.6
20260506191914 59 131 4.3 7.0 0.00 0.07 0.07 99 1011.4
20260506191410 59 133 3.5 5.2 0.05 0.07 0.07 99 1011.6
20260506190908 59 161 3.5 5.2 0.07 0.06 0.06 99 1011.6
20260506190404 59 140 2.6 7.0 0.07 0.06 0.06 99 1011.7
20260506185901 59 135 2.6 4.3 0.05 0.05 0.05 99 1011.7
20260506185358 59 153 3.5 4.3 0.05 0.05 0.05 99 1011.5
20260506184855 59 131 3.5 6.1 0.07 0.04 0.04 98 1011.7
20260506184352 59 116 5.2 7.8 0.07 0.04 0.04 97 1011.7
20260506183849 60 147 4.3 7.0 0.07 0.03 0.03 96 1011.6
20260506183344 60 134 2.6 6.1 0.05 0.02 0.02 96 1011.9
20260506182842 60 148 2.6 7.8 0.05 0.02 0.02 94 1011.9
20260506182339 61 154 4.3 6.1 0.07 0.01 0.01 93 1012.0
20260506181836 62 187 5.2 6.1 0.07 0.01 0.01 91 1012.0
20260506181335 62 168 5.2 7.8 0.00 0.00 0.00 89 1012.2
20260506180831 63 140 3.5 6.1 0.00 0.00 0.00 88 1012.3
20260506180327 63 121 4.3 7.0 0.00 0.00 0.00 86 1012.4
20260506175823 64 136 4.3 9.6 0.00 0.00 0.00 84 1012.4
20260506175321 64 164 5.2 9.6 0.00 0.00 0.00 82 1012.6
20260506174818 64 147 6.1 11.3 0.00 0.00 0.00 81 1012.3
20260506174315 65 128 4.3 11.3 0.00 0.00 0.00 80 1012.5
20260506173812 66 139 6.1 9.6 0.00 0.00 0.00 78 1012.5
20260506173309 67 173 11.3 13.9 0.00 0.00 0.00 76 1012.8
20260506172806 68 119 5.2 6.1 0.00 0.00 0.00 73 1012.5
20260506172306 68 179 7.0 12.2 0.00 0.00 0.00 72 1012.5
20260506171800 69 126 5.2 7.8 0.00 0.00 0.00 70 1012.5
20260506171257 69 119 6.1 12.2 0.00 0.00 0.00 69 1012.4
20260506170755 69 131 4.3 9.6 0.00 0.00 0.00 69 1012.4
20260506170251 69 124 7.8 11.3 0.00 0.00 0.00 69 1012.3
20260506165750 69 127 6.1 13.0 0.00 0.00 0.00 69 1012.2
20260506165247 70 155 9.6 13.0 0.00 0.00 0.00 67 1012.2
20260506164744 70 119 9.6 13.0 0.00 0.00 0.00 66 1012.3
20260506164240 70 134 7.8 12.2 0.00 0.00 0.00 65 1012.3
20260506163737 71 189 9.6 13.0 0.00 0.00 0.00 65 1012.3
20260506163232 71 174 7.8 13.9 0.00 0.00 0.00 66 1012.3
20260506162728 70 158 12.2 19.1 0.00 0.00 0.00 65 1012.5
20260506162226 69 113 3.5 11.3 0.00 0.00 0.00 68 1012.5
20260506161723 69 176 8.7 13.9 0.00 0.00 0.00 68 1013.0
20260506161220 70 157 4.3 7.0 0.00 0.00 0.00 68 1012.8
20260506160718 70 153 5.2 7.8 0.00 0.00 0.00 68 1013.0
20260506160214 70 123 4.3 9.6 0.00 0.00 0.00 68 1012.9
20260506155713 70 179 9.6 11.3 0.00 0.00 0.00 67 1013.1
20260506155210 70 184 8.7 17.4 0.00 0.00 0.00 67 1013.1
20260506153312 70 128 10.4 15.6 0.00 0.00 0.00 67 1013.1
20260506152808 70 114 9.6 14.8 0.00 0.00 0.00 67 1013.1
20260506152306 70 103 6.1 11.3 0.00 0.00 0.00 68 1013.5
20260506151805 69 139 14.8 19.1 0.00 0.00 0.00 67 1013.3
20260506151301 70 148 5.2 11.3 0.00 0.00 0.00 68 1013.4
20260506150758 69 157 4.3 8.7 0.00 0.00 0.00 69 1013.7
20260506150303 69 173 3.5 15.6 0.00 0.00 0.00 69 1013.6
20260506145751 69 185 9.6 18.2 0.00 0.00 0.00 69 1013.7
20260506145248 69 133 8.7 13.0 0.00 0.00 0.00 70 1013.6
20260506144746 68 153 3.5 7.0 0.00 0.00 0.00 72 1013.7
20260506144242 68 167 8.7 9.6 0.00 0.00 0.00 73 1013.5
20260506143740 67 126 6.1 11.3 0.00 0.00 0.00 73 1013.6
20260506143237 67 153 6.1 7.8 0.00 0.00 0.00 74 1013.6
20260506142736 68 125 4.3 11.3 0.00 0.00 0.00 73 1013.8
20260506142233 67 84 10.4 13.9 0.00 0.00 0.00 74 1013.8
20260506141731 67 145 7.0 12.2 0.00 0.00 0.00 74 1013.9
20260506141229 67 172 7.0 13.0 0.00 0.00 0.00 75 1013.6
20260506140727 67 133 6.1 14.8 0.00 0.00 0.00 75 1013.8
20260506140223 67 182 2.6 12.2 0.00 0.00 0.00 76 1013.6
20260506135720 67 143 7.0 13.0 0.00 0.00 0.00 77 1013.7
20260506135216 66 117 7.0 14.8 0.00 0.00 0.00 78 1013.5
20260506134714 66 141 8.7 15.6 0.00 0.00 0.00 78 1013.8
20260506134209 66 149 4.3 9.6 0.00 0.00 0.00 79 1013.7
20260506133707 65 157 5.2 19.1 0.00 0.00 0.00 79 1013.8
20260506133203 65 96 6.1 13.9 0.00 0.00 0.00 80 1013.8
20260506132701 65 177 7.8 11.3 0.00 0.00 0.00 80 1013.8
20260506132157 64 161 4.3 9.6 0.00 0.00 0.00 82 1013.8
20260506131655 64 150 13.0 20.9 0.00 0.00 0.00 82 1014.1
20260506131151 63 142 10.4 18.2 0.00 0.00 0.00 83 1014.1
20260506130648 63 163 6.1 11.3 0.00 0.00 0.00 83 1014.6
20260506130145 63 143 6.1 9.6 0.00 0.00 0.00 84 1014.5
20260506125643 62 147 7.0 9.6 0.00 0.00 0.00 85 1014.3
20260506125141 62 166 5.2 7.0 0.00 0.00 0.00 86 1014.2
20260506124639 61 125 3.5 7.0 0.00 0.00 0.00 87 1014.3
20260506124136 62 122 4.3 11.3 0.00 0.00 0.00 87 1014.4
20260506123633 62 123 2.6 7.0 0.00 0.00 0.00 86 1014.1
20260506123132 62 132 2.6 8.7 0.00 0.00 0.00 86 1014.2
20260506122628 61 125 3.5 8.7 0.00 0.00 0.00 88 1014.3
20260506122126 61 141 5.2 8.7 0.00 0.00 0.00 87 1014.5
20260506121624 60 124 4.3 7.8 0.00 0.00 0.00 89 1014.3
20260506121120 60 166 9.6 11.3 0.00 0.00 0.00 89 1014.7
20260506120618 60 137 6.1 13.0 0.00 0.00 0.00 90 1014.5
20260506120115 60 138 3.5 8.7 0.00 0.00 0.00 90 1014.3
20260506115614 60 155 2.6 4.3 0.00 0.00 0.00 90 1014.6
20260506115112 59 112 0.9 5.2 0.00 0.00 0.00 91 1014.4
20260506114608 59 112 2.6 4.3 0.00 0.00 0.00 91 1014.3
20260506114107 59 106 0.0 6.1 0.00 0.00 0.00 92 1014.7
20260506113604 58 218 3.5 4.3 0.00 0.00 0.00 92 1014.6
20260506113101 58 134 0.9 4.3 0.00 0.00 0.00 93 1014.7
20260506112557 57 165 2.6 4.3 0.00 0.00 0.00 94 1014.7
20260506112055 57 139 1.7 4.3 0.00 0.00 0.00 94 1014.8
20260506111553 57 132 1.7 4.3 0.00 0.00 0.00 93 1014.8
20260506111050 58 123 2.6 4.3 0.00 0.00 0.00 93 1015.0
20260506110548 58 132 3.5 6.1 0.00 0.00 0.00 93 1015.1
20260506110045 57 141 3.5 6.1 0.00 0.00 0.00 94 1014.9
20260506105541 57 135 1.7 5.2 0.00 0.00 0.00 94 1014.8
20260506105038 57 148 2.6 6.1 0.00 0.00 0.00 94 1014.8
20260506104536 57 151 2.6 5.2 0.00 0.00 0.00 94 1014.8
20260506104034 57 128 4.3 6.1 0.00 0.00 0.00 94 1014.8
20260506103531 57 145 1.7 5.2 0.00 0.00 0.00 95 1014.6
20260506103027 56 132 2.6 4.3 0.00 0.00 0.00 95 1014.4
20260506102526 56 130 3.5 7.0 0.00 0.00 0.00 95 1014.7
20260506102023 56 130 1.7 2.6 0.00 0.00 0.00 95 1014.6
20260506101519 56 144 2.6 4.3 0.00 0.00 0.00 95 1014.8
20260506101016 56 97 0.9 2.6 0.00 0.00 0.00 95 1014.6
20260506100515 56 156 2.6 6.1 0.00 0.00 0.00 94 1014.6
20260506100013 56 163 2.6 5.2 0.00 0.00 0.00 94 1014.4
20260506095511 57 134 2.6 5.2 0.00 0.00 0.00 94 1014.6
20260506095007 57 141 2.6 4.3 0.00 0.00 0.00 94 1014.6